Find Starlink 30545

NORAD ID: 58000 Int'l Des: 2023-153 Owner: SPXS Country: US Constellation: starlink operational
LEOCIRCULAR

リアルタイム位置

3D地球を読み込み中...

Starlink 30545について

説明を読み込み中...

次回通過

Passes for default location (London). Set your location on the main map for personalized predictions.

高度履歴

Loading altitude history...

軌道要素

1 58000U 23153K 26123.04241909 .00000108 00000-0 13436-4 0 9990
2 58000 43.0045 119.6890 0001119 265.2365 94.8359 15.27574687143217
Epoch: May 3, 2026 • Age: 18 hours

現在のステータス

高度 484.0 km
速度 7.62 km/s
衛星直下点 -7.59°S, 155.21°E
打ち上げ日 Oct 5, 2023
運用期間 2.5 years
タイプ internet

技術仕様

分類 Payload
質量 730.00 kg
乾燥質量 700.00 kg
総質量 730.00 kg
長さ 0.30 m
直径 4.10 m
スパン 29.00 m
形状 Box + pan
製造者 SPXS
バスタイプ Starlink V2M
フェーズステータス In Orbit
所有者/国 SPXS/US

Most Searched